TIMESTAMP,CO2_1_1_1,H2O_1_1_1,TAU_1_1_1,TAU_SSITC_TEST_1_1_1,H_1_1_1,H_SSITC_TEST_1_1_1,LE_1_1_1,LE_SSITC_TEST_1_1_1,FC_1_1_1,FC_SSITC_TEST_1_1_1,WD_0_0_1,WS_0_0_1,WS_MAX_0_0_1,U_SIGMA_0_0_1,V_SIGMA_0_0_1,W_SIGMA_0_0_1,USTAR_0_0_1,MO_LENGTH_0_0_1,ZL_0_0_1,FETCH_MAX_0_0_1,FETCH_70_0_0_1,FETCH_80_0_0_1,FETCH_90_0_0_1,PA_0_0_1,RH_0_0_1,TA_0_0_1,VPD_0_0_1,T_SONIC_0_0_1,T_SONIC_SIGMA_0_0_1
[yyyymmddHHMMSS],[mmolCO2 mol-1],[mmolH2O mol-1],[kg m-1 s-2],[#],[W m-2],[#],[W m-2],[#],[umolCO2 m-2 s-1],[#],[Decimal degrees],[m s-1],[m s-1],[m s-1],[m s-1],[m s-1],[m s-1],[m],[#],[m],[m],[m],[m],[kPa],[%],[deg C],[hPa],[deg C],[deg C]
20220521003000,416.71902268229104,9.2682125359632952,0.35204874290124782,0,-1.4002914043117776,2,40.886962879570170,0,1.3617100930207491,1,234.42929056338281,2.7313596231344661,7.9717116940368493,1.0852950910790269,1.0029379617104635,0.71207228019696389,0.56251415003282557,10467.502968162773,1.8151415918188966E-003,103.69131860986241,189.58080106871392,226.87979926704188,284.02658614595924,92.273927491197426,51.058620689655172,14.772758620689672,8.1997119473127764,14.674228732345796,9.8513358892475034E-002
20220521010000,417.32023147961979,8.9997533828462561,0.43206849134382336,0,-36.057594687385709,0,44.033689138528793,0,2.5134052876629016,0,226.85361562279121,2.9024107980223239,8.4236052638288861,1.3011465357693088,1.0239668062155307,0.81580637465447203,0.62229019614752401,550.62564378478010,3.4506202561510962E-002,100.82763750512255,184.34507868500529,220.61397679589820,276.18251994163006,92.344671551432285,51.464666666666666,14.207333333333338,7.8398505058575436,14.148484124077640,0.28659785048198849
20220521013000,417.84876978111453,9.0177721645876971,0.25169130842659870,0,-57.202675152780415,0,24.989464031452425,0,2.5283436366228909,0,218.92124736418214,2.4232249218017068,5.9944663722542595,0.92762343379141765,0.80712689470771115,0.57896618422667401,0.47398324302043843,153.45598812582190,0.12381400186496135,106.69467170392467,195.07188839500017,233.45122835333461,292.25323556785474,92.417398472656245,54.893333333333331,13.258333333333326,6.8500005715425010,13.266616439819359,0.33463082804415795
20220521020000,418.78638040458554,9.2461557811816117,0.25742137491853173,0,-63.191678908168392,0,18.794290852895365,0,3.3006969142182201,0,218.62198431649466,2.6706966490165462,7.0964636914552646,1.0085980414371054,0.74750856716479896,0.56699593001245507,0.47867162860222695,143.12264382284573,0.13275327713703927,109.35058137038803,199.92773832423788,239.26244051725527,299.52818361356213,92.457240384331598,58.984999999999999,12.548666666666691,5.9459293469865555,12.620328945583765,0.29426903548936256
20220521023000,420.02623968180609,9.5281017026379775,0.22301609941483114,0,-43.062941305807513,0,4.1270437964570661,1,2.2364316759986149,0,215.17686617118684,2.3330944978233203,5.6482682207442849,0.86213705316271694,0.65707566232691261,0.52794608786800967,0.44490584825566215,168.73391470185592,0.11260332597374995,109.19373731414872,199.64097736658633,238.91926089071688,299.09856344431205,92.526259333984370,63.388333333333335,11.922333333333313,5.0932856635081638,12.014486703660850,0.25937660066960089
20220521030000,420.92308821403850,9.8469712989521145,0.29466905922843811,0,-63.984150835524467,0,14.170543613538454,0,4.8266483024463147,0,221.03842903426852,2.4400343423816224,7.5154770448138875,0.98047384572210694,0.79856000602689037,0.63016744653435652,0.51114137200616783,172.23881605900434,0.11031195194404446,105.90658292254730,193.63101075461711,231.72686582308035,290.09453830027797,92.543476058810768,66.737333333333339,11.644000000000005,4.5431091798109424,11.772562973022502,0.23615682147913156
20220521033000,421.18900067385141,10.098181020119151,0.33824060603167538,0,-50.228404405163758,0,12.052065239696665,0,4.5718805949522343,0,226.14996031224263,2.7229536829975154,7.2087795944067183,1.2118926305350910,0.90662112989211474,0.69722708596586547,0.54755991749437538,269.80192695341827,7.0422032246198071E-002,103.20501922489812,188.69169069576529,225.81576123258020,282.69453679015959,92.573573514105902,68.492333333333335,11.637333333333345,4.3015100323594471,11.774451293945333,0.19970342015316903
20220521040000,421.78294714825631,10.314864843104955,0.23858547575046701,0,-18.576302288090719,0,13.712996494684589,1,2.9825867831316883,0,300.01814960207571,2.6591526876588856,7.4567683287933839,1.2828068403390123,1.4370473776315060,0.60735730900395524,0.45983811691702481,432.32680487114408,4.3948234960039065E-002,100.22670764772334,183.24638724893154,219.29912375662613,274.53647996259906,92.645228670572919,69.325666666666663,11.787333333333322,4.2294525465518742,11.901417009141710,0.20535112528131855
20220521043000,421.23876266310492,9.7775934109147045,0.79427655030144861,0,27.830360755096194,1,35.831580409880452,1,5.9192339594509047,1,308.81501799900434,4.3046711578759638,11.355623406524792,2.0007227106775525,1.4163776672937067,0.92774411504424270,0.83772628572898711,-1745.0769892859366,-1.0887771781217836E-002,115.39687482996071,210.98229113473025,252.49191685923134,316.08991812694438,92.679754466796879,68.902333333333331,11.077666666666687,4.0909785497069366,10.993657508850106,0.27969498358885830
20220521050000,420.57263230876816,9.5704408394081870,0.83378411617284498,0,-3.0399719431488470,2,11.440538299598959,0,1.9004456635447391,0,309.67376587936201,4.0830055444268609,12.763060795894877,1.8442462441229068,1.4263179690921715,1.0349204406840105,0.85670556748578930,17094.839986595685,1.1114464958372338E-003,107.64518275198155,196.80972574079843,235.53097580640383,294.85683258728676,92.749876588935237,71.301000000000002,10.254000000000019,3.5738219018019413,10.200084446039796,0.23170110454927270
20220521053000,420.54207538865057,9.1286020813191939,0.96718668401403074,0,27.389088043945527,1,38.867174775527594,1,3.1503459486418781,0,314.40614601418810,4.6073701167141339,11.613983745224868,2.0867397140195236,1.3579430885958581,0.99503081686446448,0.92055057622308412,-2354.9355782408734,-8.0681612590833233E-003,117.65863293476740,215.11750630106650,257.44071326464552,322.28522398097846,92.814018094618064,73.152666666666661,9.1783333333333417,3.1103217902161044,9.0526594000922387,0.24901892119400437
20220521060000,421.02215738668406,8.6796082264684316,0.72458893243238509,0,5.6501681609931538,1,34.044306756966627,0,2.7563299623973139,0,322.41218169483784,3.6197293263084647,11.116511932530717,1.7045988010914723,1.2965221941101615,0.85697123282113752,0.79536221404114293,-7365.6571094071169,-2.5795390306363806E-003,117.95975686663456,215.66805688707194,258.09958170351240,323.11004908226664,92.874765220920139,73.329000000000008,8.4066666666666947,2.9327690729446081,8.2904780485365563,0.28477967266376031
20220521063000,421.16791515939337,7.8242913058751453,0.66620758488630882,0,1.8937280494196829,2,41.828256257673281,1,2.4540840323068274,0,319.70536262714921,3.7664002282391187,9.9794596963648114,1.7531536548829005,1.2775314953303512,0.85581324691464589,0.76098082651378107,-19254.302334188942,-9.8679244099447901E-004,113.98577799809225,208.40235607982294,249.40439352311449,312.22470528897338,92.939248904730903,70.539333333333332,7.4630000000000223,3.0378887694855199,7.2521339378356515,0.30887586679330464
20220521070000,421.46013427911453,7.5202659008758923,0.62071670819446056,0,-12.138042914957101,0,16.155003331781451,0,1.7183777822311781,0,316.78972635027651,3.5283390537017985,11.958471623153654,1.6887598344280184,1.1353508650419901,0.83467862484226940,0.73329593576934615,2688.9383808448933,7.0659856452456142E-003,112.89192763174805,206.40244874446461,247.01101522615119,309.22847966977577,92.997641562604187,71.381666666666661,6.7210000000000036,2.8046538264803873,6.5461464965087544,0.11686565473640348
20220521073000,421.99489190437521,7.3335052154881026,0.34705327127368951,0,11.109385713832598,1,32.276452984721324,1,1.8808530798181695,0,317.64063915311601,2.9782745836239184,7.8332386776186675,1.3207054145919914,1.0847989138519074,0.76228600459069462,0.54756412709476865,-1223.7570443326231,-1.5525957613883781E-002,96.096713112131980,175.69544004367194,210.26256849075619,263.22378508638678,93.059460816189244,72.403000000000006,6.1596666666666806,2.6019199347915070,5.9563787918090156,0.21754006716236857
20220521080000,422.16598192946674,6.9208137076684881,0.57252817093199959,0,-25.833646315535344,1,11.534139057891217,1,2.5578289505409781,0,295.09721471304232,3.4814409705459584,9.3115381907919907,1.5646213692298880,1.0813251029830362,0.80880797882527078,0.70226346699224451,1110.5234870915679,1.7109048318969377E-002,111.83522588708735,204.47046093748895,244.69891925777230,306.33400988065392,93.109583195529510,71.376333333333335,5.5373333333333221,2.5848720622691714,5.3100699547661634,0.21595614910674910
20220521083000,421.86292347937507,6.5147541308717356,0.80677989247608761,0,-14.259984236777592,0,15.320208036427172,0,2.1544182720670686,0,289.48645835404005,4.5229827147044013,11.660424279556374,1.8213670380098845,1.3162653566545859,0.98281521428483276,0.83233054257061290,3350.2391093944680,5.6712370011805261E-003,109.62612628502249,200.43152230873281,239.86534127847071,300.28294382379698,93.148074045789940,70.662333333333336,4.8193333333333612,2.5201476427279670,4.5413371861776000,0.26044786585847363
20220521090000,421.90607899670840,6.5157086224933689,1.0137325598320959,0,11.852988099603117,2,15.540896987015913,0,1.3052126374805550,1,305.85782311348993,4.8420110472813374,13.965032598415753,1.9662708304021979,1.4372032736077824,1.0906884303570867,0.93115869577832733,-5646.4979893092022,-3.3649175180746815E-003,110.33499951553691,201.72756865763427,241.41637774324948,302.22465742501754,93.218525919270832,75.250333333333330,3.9346666666666579,1.9982107506496698,3.6197949159410427,0.23117719392986721
20220521093000,421.92768370872000,6.4257233355726147,0.63038200766622310,0,-2.2379686612688223,2,6.4766780214619066,1,0.97155033595318685,1,304.10580201152072,4.7872735318104276,11.452385558407288,1.8952995025083270,1.3154019313560528,0.93515277031984012,0.73306000388044146,14597.186533476202,1.3016206894682536E-003,103.05295935608738,188.41367675857151,225.48304955550955,282.27802125147099,93.272657527126739,78.305999999999997,3.1816666666666720,1.6608769145918518,2.8491323725382927,0.22912415632866198
20220521100000,421.51543287330821,6.3449830979845547,0.48469371980811010,0,-3.6875235048517436,2,-7.3138401584738721,2,-0.15528217540470365,2,306.13412179150703,3.7688080979300653,11.921627963156952,1.5868116059643744,1.3499333577496493,0.90507465703319612,0.64205047367050716,5955.1655449793361,3.1905074437466254E-003,95.139904874996347,173.94608942785226,208.16904259400155,260.60293909047027,93.340375497829868,79.771666666666661,2.7520000000000095,1.5022005899409840,2.4479523133172734,0.14715183964316994
20220521103000,421.11544444557370,6.3134822696485067,0.75126727417033767,0,15.800485096002458,0,4.7727940454373092,1,1.4802000822933576,0,310.13162326234226,3.6896840754973934,11.131060742133821,1.6383118081266146,1.3080666950549520,0.90344620353965788,0.79855737989776210,-2675.2061205058139,-7.1022564782438442E-003,113.44306822310608,207.41010952274314,248.21692781759680,310.73813913547190,93.398402364369744,81.525666666666666,2.3849999999999909,1.3365933878610792,2.0942853287166372,8.8124530595156819E-002
20220521110000,421.18635792430877,6.3847865719445824,0.75813084625980975,0,30.050475655064670,1,-0.30484662346593455,2,1.7729331504669354,0,317.11823242294690,2.8794073520658046,9.3182641779417903,1.6177126934154080,1.0713673036063460,0.83908436182503898,0.80176186084695988,-1424.3270447238688,-1.3339632965884946E-002,120.73876041958384,220.74896169958743,264.18012708289729,330.72217035349325,93.462042711994044,83.203333333333333,2.2663333333333071,1.2049818642004197,1.9953787384728798,8.6947928131449886E-002
20220521113000,420.82757928834678,6.3014433961317984,0.51774329932748409,0,16.004280804451806,0,21.519473008884717,1,0.39524657225847443,0,312.38754971986793,3.2147253345055482,9.3996200785213677,1.4368203778424409,1.1198455072309363,0.80806460075113862,0.66232134828171707,-1508.2459422551351,-1.2597414962437178E-002,106.79552062858667,195.25627239339715,233.67188890708553,292.52947639661704,93.517321053725979,82.363333333333330,2.2326666666666597,1.2622086968103110,1.9512076977565016,8.8862531078908236E-002
20220521120000,420.79932011908323,6.5447318579106160,0.38148877515780349,0,41.965374035771099,0,27.486115679280708,0,-0.60077411304815875,1,322.68033227898803,2.6291686351624088,7.4011512597377376,1.2741353321839917,1.0012811405776014,0.64749796182759578,0.56809222310860752,-363.23961510519280,-5.2307070071356820E-002,112.77147231093284,206.18221800076026,246.74745527365386,308.89853388441082,93.610644362847225,86.696666666666673,2.0590000000000259,0.94035458188036725,1.7435329640707096,0.23874552737674193
20220521123000,420.47017354820821,6.5488774401340786,0.58053089060245955,0,47.858210192005558,0,9.8188141109371685,1,-0.92069194453058956,0,324.43279017157431,3.2139478212824124,8.2682002201772207,1.3926706370297290,1.1642248383102982,0.78942862135275804,0.70067036361679946,-597.70084184947177,-3.1788477896748657E-002,113.81921975598880,208.09783449223107,249.03995895866575,311.76847645966217,93.632144230034726,86.986666666666665,2.0243333333333453,0.91758050199464947,1.6794010086059643,0.19726186400656734
20220521130000,420.59486798251794,6.6664110268653793,0.27990601387552089,0,53.611053782761182,1,-18.850439088897129,2,-1.5503376109905582,1,334.62270616193791,2.3777645615440690,6.3151083376368620,1.0042358218834722,0.90073720423244152,0.59851033520041785,0.48620442948212883,-178.36727828183186,-0.10652178013266968,106.03584588430644,193.86734467501995,232.00969716527706,290.44860957872027,93.694494779513889,89.846666666666664,1.8299999999999841,0.70604001444837650,1.5009625591702047,0.18159103191425544
20220521133000,419.64938831466645,6.8059620692352567,0.26794242883919517,1,181.77329655484834,0,29.950489686018493,0,-3.7213904282216284,0,347.06380389205816,2.2314817976337662,8.0883695313698496,1.0954907056685217,0.93229604698242807,0.64643908480111356,0.47635321554171128,-49.491831622366632,-0.38390173443113007,98.079014946585318,179.31972001979622,214.59990596815507,268.65361692090170,93.739251973960634,86.236666666666665,2.7023333333333426,1.0184955929664181,2.3313349190017334,0.61359008821594119
20220521140000,419.68291908608734,6.2938353666179570,0.50887733576204031,0,82.873986339841835,0,53.488445011937394,1,-1.2898493827628199,1,320.32703768635855,2.6666747066082466,7.0253973241211449,1.2359671498005720,1.2209603074669066,0.75279888934090300,0.65689906523595720,-284.68333115730843,-6.6740823646963390E-002,112.28212910250348,205.28754254773975,245.67675725968738,307.55814702457315,93.751930108506954,77.244000000000000,3.1539999999999964,1.7387744309983726,2.7786593780518274,0.28778604745871295
20220521143000,419.03279630202468,6.1423550094660513,0.40272681744642336,0,99.735505802774512,0,19.214462647069130,1,-2.6217041263563834,0,331.19051212291788,2.4022309556559489,7.1847794050944778,1.1179073573816178,1.0327877107651755,0.60252804898572521,0.58474166198918609,-166.88454848623323,-0.11385116340814118,122.24871837539987,223.50964641920922,267.48396160356884,334.85817912610781,93.781384429470492,73.087999999999994,3.5963333333333480,2.1216216030307362,3.1717375657823368,0.30785310139796407
20220521150000,418.97706124255626,6.2126292697523553,0.42748990888750665,0,129.61205601587025,0,52.320152264780184,1,-3.4582991204254188,0,325.36334053650808,2.7903477203589202,7.1684031220269855,1.3203619884312832,1.0386415655327277,0.63063422625483068,0.60274232788785220,-140.65419314328105,-0.13508306844890972,120.76420389939697,220.79548049546753,264.23579820049952,330.79186398655611,93.788139053599949,72.483666666666664,3.8766666666666652,2.2125354801487016,3.3366812699368893,0.34794379194239222
20220521153000,418.60490640690369,6.2862895328367472,0.40107839427451308,0,134.70490109729968,0,29.264728248793823,0,-3.1544867494830422,0,335.70486194413371,2.3147329980585898,7.0226027557878474,1.2047489552596466,1.2046794752573535,0.64363371547321668,0.58426824032340163,-123.27461815354286,-0.15412742934912063,115.88672638511218,211.87789600768767,253.56372715148510,317.43169742721000,93.790904425347222,71.210999999999999,4.2970000000000255,2.3842460842957101,3.7861134270562502,0.39105961755448038
20220521160000,418.47030320570155,6.3279610595647915,0.55272702363564030,0,201.03410918332975,0,43.681786885930300,0,-4.3451673838523091,0,307.16704469100137,3.0773863517676658,7.9823063294561534,1.4702066775269631,1.1054602750192644,0.75041865728068313,0.68603594344155117,-133.75151221332104,-0.14205446866048732,116.54388668168581,213.07939462035097,255.00161412381561,319.23176129069259,93.822132149088546,70.669333333333327,4.5049999999999955,2.4647706591295604,3.9156972503662359,0.42212193503005602
20220521163000,418.01215450489519,6.3221833285985900,0.51566933053599073,1,267.39464907172885,0,54.915279813759042,0,-4.0779581378212972,0,309.70971486026349,2.6771600544194487,7.0064180463142121,1.3558091700092898,1.1370859010843752,0.77925825382781999,0.66315571004585283,-90.851643968450730,-0.20913215402682164,110.05307501644563,201.21212075808819,240.79951825472327,301.45242254459254,93.854779862847224,68.060333333333332,5.0353333333333126,2.7853275028754525,4.4236530982123554,0.58096216784937516
20220521170000,417.51863481063577,6.3031702823074491,0.48047932335960131,1,363.31252542112833,0,76.241864516433154,0,-7.3310606138650973,1,322.97674295156372,1.3869296018944435,7.3618419585162584,1.0308422647240536,1.4809084812334146,0.79630622093601555,0.64106189178682227,-60.422461946847534,-0.31445259573689549,105.27149283431918,192.46986352174125,230.33726914646925,288.35492815670119,93.895551597575292,63.616999999999997,5.9703333333333148,3.3856796101817723,5.2879583452981933,0.71248822676179113
20220521173000,417.15209175877590,6.2992843995036027,0.55286421970824806,1,634.58386587171674,0,149.29336346267939,0,-12.098646991035011,1,331.37260421798294,1.2056886673300788,5.8465884076516161,1.0651148806286621,1.1678079727733837,0.81923950175279014,0.68862973511830861,-42.882034341331611,-0.44307599422089344,108.97197179726744,199.23551927324340,238.43403110842738,298.49111333634619,93.902374589775391,60.124000000000002,6.7813333333333503,3.9241716104697209,6.1664194035730588,0.90645353230226722
20220521180000,416.76955901709198,6.2614451886577864,0.31172955019019610,1,267.25921015560357,0,64.516683800427401,0,-3.5403368125048855,0,322.22164670541258,2.0184276807307397,6.1232096353080800,1.2527519346111446,1.1747424220679732,0.76390226983072240,0.51780300084782604,-43.291144250518592,-0.43888883809700630,91.739487541009666,167.72904203384005,200.72882471942924,251.28866919987672,93.910734526692721,56.571333333333335,7.5836666666666588,4.5152976155205558,6.7756959949069255,0.68602671303749152
20220521183000,416.25501973681969,6.3467947113345877,0.45596314153383466,1,449.15861109308344,0,141.69754945109699,1,-6.1982552174379197,0,326.10472007660513,1.4923372150111660,5.7516879289183329,1.0997492577442114,1.1222151789646158,0.75522136508822280,0.62735940962308401,-45.803899623765993,-0.41481184257380532,107.94651322037758,197.36065394145010,236.19029615355808,295.68222342412531,93.880997718315982,53.894666666666666,8.4903333333333535,5.0986359392381306,7.7665735592311762,0.80473701636837414
20220521190000,416.10508590359490,6.3515027370065686,0.82507492435382224,1,341.80890808847801,0,130.36985775309981,1,-5.1581661088817770,1,272.08088863796860,1.8520827999531977,7.0261864895968422,1.3724211949543097,1.6098817058762047,0.89037769302941738,0.84492849212846954,-147.04314238044819,-0.12921377829943848,120.07468261113677,219.53481566899220,262.72710438149790,328.90315835328738,93.883888651797875,51.493000000000002,9.1759999999999877,5.6187571222576107,8.3899112708834878,0.70943995187270192
20220521193000,416.41714109667521,6.2992349964768275,0.12258858930538677,0,197.44787370897117,0,65.157049186411768,0,-2.9655897219451082,0,316.79428732469978,2.0607746984907176,5.6806424519308072,1.0846041888263664,0.77600168956913895,0.60043633221304560,0.32559398698943542,-14.566579604182900,-1.3043556219981807,76.740112185789016,140.30540007908732,167.90972939547606,210.20305630981215,93.889167743886134,51.546333333333337,9.0389999999999873,5.5609456220454527,8.3706453425425025,0.46838112998915055
20220521200000,416.32588108746847,6.3167347308867603,0.14790489256413081,0,167.95293813104172,0,53.345459881281606,0,-3.6256112449386024,0,316.16973506523982,1.5664270760895240,5.4047869255907495,1.1160047595970664,1.1534536102906430,0.60362822277738870,0.35782263222433186,-22.730630258258198,-0.83587651482286396,82.408785741242028,150.66954326915763,180.31296175488444,225.73043140269732,93.892521093272521,50.652999999999999,9.3400000000000318,5.7795723142813378,8.7271197033638828,0.43988298340328674
20220521203000,416.28247105231225,6.2839394780200850,0.18931770650047006,1,133.62367044784520,0,63.839924667985464,0,-3.5985346631315838,0,313.15508485276291,1.5289152672981412,4.3238256027565916,0.93079965933195818,0.82836566138072198,0.52233869762578533,0.40478527320961410,-41.366457889289926,-0.45930932860749574,102.11108744673659,186.69163451363991,223.42220480405271,279.69808817138153,93.911983528862848,50.399333333333331,9.3403333333333194,5.8094124122830433,8.8735331005520948,0.34804106979368077
20220521210000,416.15734925705868,6.3819581529479255,0.33959501044817875,1,178.02644155413114,0,54.706043089750551,0,-4.0046981479688011,1,345.25375394126070,2.0776215689722632,6.3988492528612735,1.1296163443361569,1.1414241885319272,0.64097904200579836,0.54249953462386569,-74.738200081409616,-0.25422073289568103,109.57193521029242,200.33244374076943,239.74676953763790,300.13450607450892,93.900408227213546,50.050333333333334,9.6719999999999686,5.9822358611422022,9.0528472340902226,0.45712931217285152
20220521213000,415.97442939937446,6.5566592317267292,0.35916533028868314,1,121.69052213412901,1,-10.611849856006563,2,-2.9279191857648086,0,1.5534667128395085,1.8027215859036738,6.0601622363870140,0.96710164577574420,1.3911440904078936,0.66170323148821508,0.55765465786752400,-118.76834088717303,-0.15997529188396703,109.19847230286909,199.64963443611438,238.92962119189556,299.11153331198966,93.907115021701401,52.329666666666668,9.4123333333333221,5.6104514804161054,8.9765228118897085,0.38055166102195354
20220521220000,415.88538703709389,6.6619777552106303,0.48439355061248374,0,122.11709481927954,0,61.451169517415593,0,-1.8733391305803837,1,23.211735508826308,2.8448333096191400,7.2525797360995758,1.1496412863200483,1.0248040585120810,0.74329689696005508,0.64689754076457606,-184.77324826730091,-0.10282873834914556,112.04524849110643,204.85444924090984,245.15845518498600,306.90929433100860,93.920719468789940,55.362000000000002,8.8156666666666865,5.0463111500822793,8.3248845766157729,0.28962408390120792
20220521223000,416.16265152311098,6.6106225516117627,0.29823903852473954,0,92.138359996292451,0,47.722653282396550,0,-3.4540014849464336,0,6.3935815053378917,2.9065026299481702,6.8685850315241641,1.0003310442862734,1.0550280538830661,0.67840788227286075,0.50738710582006941,-118.15906421668882,-0.16080019020086683,99.250735245332081,181.46199842692755,217.16366607595157,271.86314034902125,93.916397932725701,55.832333333333331,8.5756666666666774,4.9126853120883132,8.0837507069905996,0.28278850921832899